Location: Corralito
(10.2667°N, 66.9500°W)
Time: 12:28:56
(UTC+00:00)

CZ-6A DEB - Visible Passes

Search period start: 13 April 2024 00:00
Search period end: 23 April 2024 00:00
Orbit: 663 x 823 km, 98.7° (Epoch: 12 April)

Date Brightness Start Highest point End Pass type
(mag) Time Alt. Az. Time Alt. Az. Time Alt. Az.
14 Apr ? 00:27:16 10° SW 00:30:00 14° W 00:32:45 10° WNW visible
14 Apr ? 23:41:47 10° S 23:46:53 46° WSW 23:52:01 10° NNW visible
15 Apr ? 22:58:37 10° SSE 23:03:52 55° ENE 23:09:05 10° N visible
16 Apr ? 23:54:17 10° SSW 23:59:03 33° WSW 00:03:51 10° NW visible
17 Apr ? 23:10:37 10° SSE 23:15:59 77° ENE 23:21:20 10° N visible
19 Apr ? 00:06:55 10° SSW 00:11:11 24° W 00:15:27 10° NW visible
19 Apr ? 23:22:41 10° S 23:28:04 79° WSW 23:33:24 10° NNW visible
21 Apr ? 00:19:45 10° SW 00:23:15 18° W 00:26:45 10° WNW visible
21 Apr ? 23:34:49 10° S 23:40:05 57° WSW 23:45:19 10° NNW visible
